Time,TemperatureF,DewpointF,PressureIn,WindDirection,WindDirectionDegrees,WindSpeedMPH,WindSpeedGustMPH,Humidity,HourlyPrecipIn,Conditions,Clouds,dailyrainin,SoftwareType,DateUTC
2013-05-24 00:13:00,43.3,42.0,30.05,ENE,60,9.0,11.0,93,0.00,,,0.00,weatherlink.com 1.10,2013-05-24 04:13:00,
2013-05-24 00:28:00,43.4,41.0,30.06,West,266,1.0,10.0,92,0.00,,,0.00,weatherlink.com 1.10,2013-05-24 04:28:00,
2013-05-24 00:43:00,43.3,41.0,30.06,NE,50,4.0,11.0,92,0.01,,,0.01,weatherlink.com 1.10,2013-05-24 04:43:00,
2013-05-24 00:58:00,43.3,42.0,30.07,NW,314,2.0,8.0,93,0.03,,,0.03,weatherlink.com 1.10,2013-05-24 04:58:00,
2013-05-24 01:13:00,43.3,42.0,30.07,NNW,341,1.0,7.0,94,0.03,,,0.03,weatherlink.com 1.10,2013-05-24 05:13:00,
2013-05-24 01:28:00,43.3,42.0,30.07,WNW,283,2.0,8.0,93,0.04,,,0.04,weatherlink.com 1.10,2013-05-24 05:28:00,
2013-05-24 01:43:00,43.3,42.0,30.07,NNW,336,1.0,16.0,93,0.03,,,0.04,weatherlink.com 1.10,2013-05-24 05:43:00,
2013-05-24 01:58:00,43.3,42.0,30.07,NNW,347,6.0,18.0,93,0.02,,,0.05,weatherlink.com 1.10,2013-05-24 05:58:00,
2013-05-24 02:13:00,43.2,41.0,30.07,North,354,2.0,11.0,92,0.02,,,0.05,weatherlink.com 1.10,2013-05-24 06:13:00,
2013-05-24 02:28:00,43.2,41.0,30.07,ESE,115,1.0,9.0,92,0.01,,,0.05,weatherlink.com 1.10,2013-05-24 06:28:00,
2013-05-24 02:43:00,43.3,41.0,30.07,West,269,0.0,6.0,92,0.01,,,0.05,weatherlink.com 1.10,2013-05-24 06:43:00,
2013-05-24 02:58:00,43.3,41.0,30.08,ENE,61,4.0,12.0,91,0.00,,,0.05,weatherlink.com 1.10,2013-05-24 06:58:00,
2013-05-24 03:13:00,43.3,41.0,30.09,North,11,4.0,14.0,90,0.00,,,0.05,weatherlink.com 1.10,2013-05-24 07:13:00,
2013-05-24 03:28:00,43.4,41.0,30.09,SW,223,2.0,10.0,90,0.00,,,0.05,weatherlink.com 1.10,2013-05-24 07:28:00,
2013-05-24 03:43:00,43.3,41.0,30.10,North,4,1.0,9.0,90,0.00,,,0.05,weatherlink.com 1.10,2013-05-24 07:43:00,
2013-05-24 03:59:00,43.2,40.0,30.11,SSE,149,0.0,9.0,89,0.00,,,0.05,weatherlink.com 1.10,2013-05-24 07:59:00,
2013-05-24 04:14:00,43.1,40.0,30.11,NNE,33,2.0,7.0,88,0.00,,,0.05,weatherlink.com 1.10,2013-05-24 08:14:00,
2013-05-24 04:29:00,42.9,39.0,30.12,West,266,1.0,13.0,87,0.00,,,0.05,weatherlink.com 1.10,2013-05-24 08:29:00,
2013-05-24 04:44:00,42.8,39.0,30.12,East,85,7.0,10.0,87,0.00,,,0.05,weatherlink.com 1.10,2013-05-24 08:44:00,
2013-05-24 04:59:00,42.9,39.0,30.13,NE,40,0.0,10.0,86,0.00,,,0.05,weatherlink.com 1.10,2013-05-24 08:59:00,
2013-05-24 05:14:00,43.0,39.0,30.14,SE,141,1.0,9.0,85,0.00,,,0.05,weatherlink.com 1.10,2013-05-24 09:14:00,
2013-05-24 05:29:00,42.9,39.0,30.14,NNW,335,1.0,9.0,85,0.00,,,0.05,weatherlink.com 1.10,2013-05-24 09:29:00,
2013-05-24 05:44:00,42.8,39.0,30.14,West,259,2.0,11.0,85,0.00,,,0.05,weatherlink.com 1.10,2013-05-24 09:44:00,
2013-05-24 05:59:00,42.4,38.0,30.15,North,4,10.0,12.0,84,0.00,,,0.05,weatherlink.com 1.10,2013-05-24 09:59:00,
2013-05-24 06:14:00,42.1,38.0,30.16,WSW,242,2.0,8.0,84,0.00,,,0.05,weatherlink.com 1.10,2013-05-24 10:14:00,
2013-05-24 06:29:00,42.1,37.0,30.16,WSW,240,4.0,8.0,82,0.00,,,0.05,weatherlink.com 1.10,2013-05-24 10:29:00,
2013-05-24 06:44:00,42.2,36.0,30.18,NNW,335,4.0,12.0,80,0.00,,,0.05,weatherlink.com 1.10,2013-05-24 10:44:00,
2013-05-24 06:59:00,42.3,37.0,30.18,South,183,2.0,8.0,80,0.00,,,0.05,weatherlink.com 1.10,2013-05-24 10:59:00,
2013-05-24 07:14:00,42.3,37.0,30.19,ENE,75,4.0,10.0,80,0.00,,,0.05,weatherlink.com 1.10,2013-05-24 11:14:00,
2013-05-24 07:29:00,42.4,36.0,30.19,SW,214,0.0,11.0,79,0.00,,,0.05,weatherlink.com 1.10,2013-05-24 11:29:00,
2013-05-24 07:44:00,42.6,38.0,30.19,WSW,251,7.0,8.0,83,0.00,,,0.05,weatherlink.com 1.10,2013-05-24 11:44:00,
2013-05-24 07:59:00,42.6,37.0,30.20,WSW,251,2.0,8.0,80,0.00,,,0.05,weatherlink.com 1.10,2013-05-24 11:59:00,
2013-05-24 08:14:00,42.7,37.0,30.21,SW,228,0.0,10.0,81,0.00,,,0.05,weatherlink.com 1.10,2013-05-24 12:14:00,
2013-05-24 08:29:00,42.6,36.0,30.22,NE,45,3.0,15.0,78,0.00,,,0.05,weatherlink.com 1.10,2013-05-24 12:29:00,
2013-05-24 08:44:00,42.6,37.0,30.23,NNW,347,2.0,9.0,79,0.00,,,0.05,weatherlink.com 1.10,2013-05-24 12:44:00,
2013-05-24 08:59:00,42.6,36.0,30.23,NE,56,4.0,12.0,76,0.00,,,0.05,weatherlink.com 1.10,2013-05-24 12:59:00,
2013-05-24 09:14:00,42.8,36.0,30.24,NW,307,5.0,15.0,77,0.00,,,0.05,weatherlink.com 1.10,2013-05-24 13:14:00,
2013-05-24 09:29:00,42.7,35.0,30.25,ENE,69,3.0,13.0,75,0.00,,,0.05,weatherlink.com 1.10,2013-05-24 13:29:00,
2013-05-24 09:44:00,42.7,35.0,30.26,NNE,17,5.0,11.0,74,0.00,,,0.05,weatherlink.com 1.10,2013-05-24 13:44:00,
2013-05-24 09:59:00,42.5,35.0,30.26,SE,132,0.0,13.0,76,0.00,,,0.05,weatherlink.com 1.10,2013-05-24 13:59:00,
2013-05-24 10:14:00,42.7,35.0,30.27,NNW,344,8.0,14.0,73,0.00,,,0.05,weatherlink.com 1.10,2013-05-24 14:14:00,
2013-05-24 10:29:00,42.7,35.0,30.27,NE,41,1.0,9.0,74,0.00,,,0.05,weatherlink.com 1.10,2013-05-24 14:29:00,
2013-05-24 10:44:00,42.9,35.0,30.27,NE,38,7.0,10.0,73,0.00,,,0.05,weatherlink.com 1.10,2013-05-24 14:44:00,
2013-05-24 11:00:00,42.9,36.0,30.28,NW,314,6.0,10.0,76,0.00,,,0.05,weatherlink.com 1.10,2013-05-24 15:00:00,
2013-05-24 11:15:00,42.7,36.0,30.28,WSW,256,4.0,11.0,76,0.00,,,0.05,weatherlink.com 1.10,2013-05-24 15:15:00,
2013-05-24 11:30:00,42.6,35.0,30.29,NE,52,2.0,9.0,75,0.00,,,0.05,weatherlink.com 1.10,2013-05-24 15:30:00,
2013-05-24 11:45:00,42.8,36.0,30.30,NW,310,1.0,7.0,76,0.00,,,0.05,weatherlink.com 1.10,2013-05-24 15:45:00,
2013-05-24 12:00:00,42.8,35.0,30.30,SSE,164,2.0,8.0,75,0.00,,,0.05,weatherlink.com 1.10,2013-05-24 16:00:00,
2013-05-24 12:15:00,42.9,35.0,30.31,WNW,302,1.0,8.0,74,0.00,,,0.05,weatherlink.com 1.10,2013-05-24 16:15:00,
2013-05-24 12:30:00,43.4,36.0,30.31,North,354,2.0,8.0,74,0.00,,,0.05,weatherlink.com 1.10,2013-05-24 16:30:00,
2013-05-24 12:45:00,43.5,36.0,30.31,NE,46,3.0,8.0,74,0.00,,,0.05,weatherlink.com 1.10,2013-05-24 16:45:00,
2013-05-24 13:00:00,43.6,36.0,30.32,WSW,258,2.0,10.0,74,0.00,,,0.05,weatherlink.com 1.10,2013-05-24 17:00:00,
2013-05-24 13:15:00,43.8,35.0,30.32,ENE,73,2.0,8.0,72,0.00,,,0.05,weatherlink.com 1.10,2013-05-24 17:15:00,
2013-05-24 13:30:00,44.5,35.0,30.32,East,85,1.0,10.0,69,0.00,,,0.05,weatherlink.com 1.10,2013-05-24 17:30:00,
2013-05-24 13:45:00,44.8,35.0,30.32,NNW,335,2.0,9.0,69,0.00,,,0.05,weatherlink.com 1.10,2013-05-24 17:45:00,
2013-05-24 14:00:00,44.6,35.0,30.33,NNE,21,4.0,11.0,69,0.00,,,0.05,weatherlink.com 1.10,2013-05-24 18:00:00,
2013-05-24 14:15:00,44.8,36.0,30.33,NE,48,3.0,8.0,70,0.00,,,0.05,weatherlink.com 1.10,2013-05-24 18:15:00,
2013-05-24 14:45:00,44.6,36.0,30.33,SSW,198,3.0,9.0,72,0.00,,,0.05,weatherlink.com 1.10,2013-05-24 18:45:00,
2013-05-24 15:00:00,45.3,34.0,30.33,North,354,7.0,11.0,66,0.00,,,0.05,weatherlink.com 1.10,2013-05-24 19:00:00,
2013-05-24 15:15:00,46.0,35.0,30.33,West,268,4.0,11.0,66,0.00,,,0.05,weatherlink.com 1.10,2013-05-24 19:15:00,
2013-05-24 15:30:00,46.5,36.0,30.33,SSE,162,1.0,14.0,66,0.00,,,0.05,weatherlink.com 1.10,2013-05-24 19:30:00,
2013-05-24 15:45:00,46.1,34.0,30.33,SE,142,1.0,12.0,64,0.00,,,0.05,weatherlink.com 1.10,2013-05-24 19:45:00,
2013-05-24 16:00:00,46.0,35.0,30.34,West,275,1.0,14.0,65,0.00,,,0.05,weatherlink.com 1.10,2013-05-24 20:00:00,
2013-05-24 16:15:00,46.3,35.0,30.34,East,92,1.0,10.0,65,0.00,,,0.05,weatherlink.com 1.10,2013-05-24 20:15:00,
2013-05-24 16:30:00,46.0,35.0,30.33,NNE,21,0.0,8.0,66,0.00,,,0.05,weatherlink.com 1.10,2013-05-24 20:30:00,
2013-05-24 16:45:00,46.2,36.0,30.34,NE,36,9.0,11.0,68,0.00,,,0.05,weatherlink.com 1.10,2013-05-24 20:45:00,
2013-05-24 17:00:00,45.9,36.0,30.34,WNW,289,3.0,9.0,68,0.00,,,0.05,weatherlink.com 1.10,2013-05-24 21:00:00,
2013-05-24 17:15:00,46.0,37.0,30.34,NNE,27,4.0,10.0,70,0.00,,,0.05,weatherlink.com 1.10,2013-05-24 21:15:00,
2013-05-24 17:30:00,46.8,37.0,30.34,West,271,3.0,9.0,68,0.00,,,0.05,weatherlink.com 1.10,2013-05-24 21:30:00,
2013-05-24 17:45:00,46.9,37.0,30.34,NE,54,1.0,10.0,68,0.00,,,0.05,weatherlink.com 1.10,2013-05-24 21:45:00,
2013-05-24 18:00:00,46.9,36.0,30.34,SW,224,3.0,8.0,67,0.00,,,0.05,weatherlink.com 1.10,2013-05-24 22:00:00,
2013-05-24 18:15:00,46.5,36.0,30.35,SW,216,0.0,8.0,67,0.00,,,0.05,weatherlink.com 1.10,2013-05-24 22:15:00,
2013-05-24 18:30:00,46.3,36.0,30.34,NNE,32,3.0,11.0,68,0.00,,,0.05,weatherlink.com 1.10,2013-05-24 22:30:00,
2013-05-24 18:45:00,46.4,36.0,30.34,East,99,2.0,11.0,66,0.00,,,0.05,weatherlink.com 1.10,2013-05-24 22:45:00,
2013-05-24 19:00:00,46.0,36.0,30.34,North,354,3.0,6.0,68,0.00,,,0.05,weatherlink.com 1.10,2013-05-24 23:00:00,
2013-05-24 19:15:00,45.8,36.0,30.33,South,185,1.0,9.0,68,0.00,,,0.05,weatherlink.com 1.10,2013-05-24 23:15:00,
2013-05-24 19:30:00,45.4,36.0,30.33,WSW,258,1.0,12.0,69,0.00,,,0.05,weatherlink.com 1.10,2013-05-24 23:30:00,
2013-05-24 19:45:00,45.3,36.0,30.33,East,95,0.0,6.0,70,0.00,,,0.05,weatherlink.com 1.10,2013-05-24 23:45:00,
2013-05-24 20:00:00,45.1,36.0,30.33,NE,54,2.0,7.0,70,0.00,,,0.05,weatherlink.com 1.10,2013-05-25 00:00:00,
2013-05-24 20:15:00,45.0,36.0,30.33,NE,41,0.0,4.0,71,0.00,,,0.05,weatherlink.com 1.10,2013-05-25 00:15:00,
2013-05-24 20:30:00,44.6,36.0,30.32,NNE,21,0.0,1.0,72,0.00,,,0.05,weatherlink.com 1.10,2013-05-25 00:30:00,
2013-05-24 20:45:00,44.2,37.0,30.32,East,98,0.0,2.0,75,0.00,,,0.05,weatherlink.com 1.10,2013-05-25 00:45:00,
2013-05-24 21:00:00,43.8,37.0,30.32,East,98,0.0,0.0,77,0.00,,,0.05,weatherlink.com 1.10,2013-05-25 01:00:00,
2013-05-24 21:15:00,42.9,37.0,30.32,East,98,0.0,0.0,80,0.00,,,0.05,weatherlink.com 1.10,2013-05-25 01:15:00,
2013-05-24 21:30:00,42.1,37.0,30.32,East,98,0.0,0.0,81,0.00,,,0.05,weatherlink.com 1.10,2013-05-25 01:30:00,
2013-05-24 21:45:00,41.5,37.0,30.32,East,98,0.0,0.0,83,0.00,,,0.05,weatherlink.com 1.10,2013-05-25 01:45:00,
2013-05-24 22:00:00,40.8,36.0,30.31,East,98,0.0,0.0,84,0.00,,,0.05,weatherlink.com 1.10,2013-05-25 02:00:00,
2013-05-24 22:15:00,40.3,36.0,30.31,East,98,0.0,0.0,85,0.00,,,0.05,weatherlink.com 1.10,2013-05-25 02:15:00,
2013-05-24 22:30:00,39.8,36.0,30.32,East,98,0.0,0.0,86,0.00,,,0.05,weatherlink.com 1.10,2013-05-25 02:30:00,
2013-05-24 22:45:00,39.5,36.0,30.32,East,98,0.0,0.0,87,0.00,,,0.05,weatherlink.com 1.10,2013-05-25 02:45:00,
2013-05-24 23:01:00,39.3,36.0,30.33,East,98,0.0,0.0,88,0.00,,,0.05,weatherlink.com 1.10,2013-05-25 03:01:00,
2013-05-24 23:16:00,39.1,36.0,30.32,East,98,0.0,0.0,88,0.00,,,0.05,weatherlink.com 1.10,2013-05-25 03:16:00,
2013-05-24 23:31:00,38.8,36.0,30.33,East,98,0.0,0.0,88,0.00,,,0.05,weatherlink.com 1.10,2013-05-25 03:31:00,
2013-05-24 23:46:00,38.7,36.0,30.33,East,98,0.0,0.0,88,0.00,,,0.05,weatherlink.com 1.10,2013-05-25 03:46:00,